FW8182 Weather Reports


time (UTC)temp
C
wind
direction
speed
KPH
gust
KPH
rain 1hr
cm
rain 24hr
cm
rain mn
cm
humidity
%
barometer
mb
20260508153010 15 281 0.0 0.0 0.00 0.00 0.00 32 1008.6
20260508152514 15 282 0.0 0.0 0.00 0.00 0.00 32 1008.7
20260508152007 14 301 0.0 0.0 0.00 0.00 0.00 33 1008.6
20260508151507 14 301 0.0 0.0 0.00 0.00 0.00 32 1008.8
20260508151008 14 302 0.0 0.0 0.00 0.00 0.00 32 1008.8
20260508150506 13 302 0.0 0.0 0.00 0.00 0.00 32 1009.0
20260508150005 13 315 0.0 0.0 0.00 0.00 0.00 33 1009.0
20260508145505 13 315 0.0 0.0 0.00 0.00 0.00 33 1009.1
20260508145004 13 315 0.0 0.0 0.00 0.00 0.00 33 1009.1
20260508144504 13 315 0.0 0.0 0.00 0.00 0.00 33 1009.2
20260508144004 13 315 0.0 0.0 0.00 0.00 0.00 33 1009.2
20260508143502 13 315 0.0 0.0 0.00 0.00 0.00 32 1009.1
20260508143004 14 315 0.0 0.0 0.00 0.00 0.00 32 1009.2
20260508142502 14 315 0.0 0.0 0.00 0.00 0.00 29 1009.2
20260508142002 14 315 0.0 0.0 0.00 0.00 0.00 28 1009.2
20260508141501 14 317 0.0 0.0 0.00 0.00 0.00 28 1009.2
20260508141100 13 338 0.0 0.0 0.00 0.00 0.00 30 1009.2
20260508140559 13 338 0.0 0.0 0.00 0.00 0.00 29 1009.2
20260508140059 13 319 0.0 0.0 0.00 0.00 0.00 29 1009.2
20260508135557 13 323 0.0 0.0 0.00 0.00 0.00 30 1009.2
20260508135056 13 323 0.0 0.0 0.00 0.00 0.00 31 1009.3
20260508134612 12 323 0.0 0.0 0.00 0.00 0.00 31 1009.3
20260508134054 12 323 0.0 0.0 0.00 0.00 0.00 31 1009.3
20260508133552 12 323 0.0 0.0 0.00 0.00 0.00 32 1009.3
20260508133050 12 323 0.0 0.0 0.00 0.00 0.00 33 1009.3
20260508132550 11 323 0.0 0.0 0.00 0.00 0.00 33 1009.3
20260508132051 11 323 0.0 0.0 0.00 0.00 0.00 34 1009.2
20260508131550 11 323 0.0 0.0 0.00 0.00 0.00 35 1009.2
20260508131050 11 323 0.0 0.0 0.00 0.00 0.00 35 1009.3
20260508130549 11 323 0.0 0.0 0.00 0.00 0.00 35 1009.2
20260508130049 10 323 0.0 0.0 0.00 0.00 0.00 35 1009.2
20260508125549 10 323 0.0 0.0 0.00 0.00 0.00 36 1009.2
20260508125049 10 323 0.0 0.0 0.00 0.00 0.00 35 1009.2
20260508124557 10 323 0.0 0.0 0.00 0.00 0.00 35 1009.2
20260508124047 10 323 0.0 0.0 0.00 0.00 0.00 36 1009.2
20260508123548 10 323 0.0 0.0 0.00 0.00 0.00 36 1009.2
20260508123051 10 323 0.0 0.0 0.00 0.00 0.00 36 1009.2
20260508122547 10 323 0.0 0.0 0.00 0.00 0.00 36 1009.3
20260508122047 9 323 0.0 0.0 0.00 0.00 0.00 36 1009.2
20260508121547 9 323 0.0 0.0 0.00 0.00 0.00 36 1009.2
20260508121047 9 323 0.0 0.0 0.00 0.00 0.00 36 1009.3
20260508120550 9 323 0.0 0.0 0.00 0.00 0.00 36 1009.3
20260508120046 9 323 0.0 0.0 0.00 0.00 0.00 36 1009.3
20260508115546 9 323 0.0 0.0 0.00 0.00 0.00 36 1009.4
20260508115046 9 323 0.0 0.0 0.00 0.00 0.00 36 1009.4
20260508114544 10 323 0.0 0.0 0.00 0.00 0.00 36 1009.4
20260508114044 10 323 0.0 0.0 0.00 0.00 0.00 36 1009.3
20260508113545 10 323 0.0 0.0 0.00 0.00 0.00 36 1009.4
20260508113057 10 323 0.0 0.0 0.00 0.00 0.00 36 1009.5
20260508112543 10 323 0.0 0.0 0.00 0.00 0.00 35 1009.5
20260508112041 10 323 0.0 0.0 0.00 0.00 0.00 35 1009.4
20260508111544 10 323 0.0 0.0 0.00 0.00 0.00 35 1009.6
20260508111042 10 323 0.0 0.0 0.00 0.00 0.00 35 1009.5
20260508110541 10 323 0.0 0.0 0.00 0.00 0.00 35 1009.6
20260508110040 10 323 0.0 0.0 0.00 0.00 0.00 35 1009.6
20260508105539 10 323 0.0 0.0 0.00 0.00 0.00 35 1009.7
20260508105040 10 323 0.0 0.0 0.00 0.00 0.00 34 1009.8
20260508104539 10 323 0.0 0.0 0.00 0.00 0.00 34 1009.7
20260508104038 10 323 0.0 0.0 0.00 0.00 0.00 34 1009.8
20260508103538 10 323 0.0 0.0 0.00 0.00 0.00 34 1009.8
20260508103039 10 323 0.0 0.0 0.00 0.00 0.00 34 1009.9
20260508102537 10 323 0.0 0.0 0.00 0.00 0.00 34 1009.9
20260508102041 10 323 0.0 0.0 0.00 0.00 0.00 34 1009.8
20260508101536 10 323 0.0 0.0 0.00 0.00 0.00 34 1009.8
20260508101035 10 323 0.0 0.0 0.00 0.00 0.00 34 1009.9
20260508100537 10 323 0.0 0.0 0.00 0.00 0.00 34 1009.9
20260508100035 10 323 0.0 0.0 0.00 0.00 0.00 35 1010.0
20260508095536 10 323 0.0 0.0 0.00 0.00 0.00 35 1010.0
20260508095034 10 323 0.0 0.0 0.00 0.00 0.00 35 1010.1
20260508094533 10 323 0.0 0.0 0.00 0.00 0.00 35 1010.0
20260508094033 10 323 0.0 0.0 0.00 0.00 0.00 35 1010.1
20260508093533 10 323 0.0 0.0 0.00 0.00 0.00 35 1010.0
20260508093033 10 323 0.0 0.0 0.00 0.00 0.00 35 1010.0
20260508092534 10 323 0.0 0.0 0.00 0.00 0.00 35 1010.1
20260508092032 10 323 0.0 0.0 0.00 0.00 0.00 35 1010.1
20260508091541 10 323 0.0 0.0 0.00 0.00 0.00 35 1010.2
20260508091032 10 323 0.0 0.0 0.00 0.00 0.00 35 1010.2
20260508090531 10 323 0.0 0.0 0.00 0.00 0.00 35 1010.3
20260508090038 10 323 0.0 0.0 0.00 0.00 0.00 35 1010.4
20260508085529 10 323 0.0 0.0 0.00 0.00 0.00 35 1010.4
20260508085028 10 323 0.0 0.0 0.00 0.00 0.00 34 1010.4
20260508084528 10 323 0.0 0.0 0.00 0.00 0.00 34 1010.4
20260508084027 10 323 0.0 0.0 0.00 0.00 0.00 34 1010.5
20260508083527 10 323 0.0 0.0 0.00 0.00 0.00 34 1010.5
20260508083025 10 323 0.0 0.0 0.00 0.00 0.00 34 1010.6
20260508082525 10 323 0.0 0.0 0.00 0.00 0.00 34 1010.7
20260508082024 10 323 0.0 0.0 0.00 0.00 0.00 34 1010.7
20260508081524 10 323 0.0 0.0 0.00 0.00 0.00 34 1010.8
20260508081023 10 323 0.0 0.0 0.00 0.00 0.00 33 1010.8
20260508080522 10 323 0.0 0.0 0.00 0.00 0.00 33 1010.9
20260508080031 10 323 0.0 0.0 0.00 0.00 0.00 33 1010.9
20260508075521 10 323 0.0 0.0 0.00 0.00 0.00 33 1011.0
20260508075019 10 323 0.0 0.0 0.00 0.00 0.00 32 1011.0
20260508074527 11 323 0.0 0.0 0.00 0.00 0.00 32 1011.0
20260508074018 11 323 0.0 0.0 0.00 0.00 0.00 32 1011.1
20260508073518 11 323 0.0 0.0 0.00 0.00 0.00 32 1011.2
20260508073017 11 323 0.0 0.0 0.00 0.00 0.00 32 1011.1
20260508072516 11 323 0.0 0.0 0.00 0.00 0.00 32 1011.2
20260508072016 11 323 0.0 0.0 0.00 0.00 0.00 32 1011.1
20260508071525 11 323 0.0 0.0 0.00 0.00 0.00 31 1011.2
20260508071017 11 323 0.0 0.0 0.00 0.00 0.00 31 1011.2
20260508070517 11 323 0.0 0.0 0.00 0.00 0.00 32 1011.2
20260508070016 11 323 0.0 0.0 0.00 0.00 0.00 32 1011.3
20260508065514 11 323 0.0 0.0 0.00 0.00 0.00 31 1011.2
20260508065019 11 323 0.0 0.0 0.00 0.00 0.00 31 1011.3
20260508064519 11 323 0.0 0.0 0.00 0.00 0.00 31 1011.3
20260508064013 11 323 0.0 0.0 0.00 0.00 0.00 31 1011.3
20260508063514 11 323 0.0 0.0 0.00 0.00 0.00 31 1011.3
20260508063013 11 323 0.0 0.0 0.00 0.00 0.00 31 1011.3
20260508062512 11 323 0.0 0.0 0.00 0.00 0.00 31 1011.3
20260508062013 11 323 0.0 0.0 0.00 0.00 0.00 31 1011.3
20260508061512 11 323 0.0 0.0 0.00 0.00 0.00 31 1011.4
20260508061010 11 323 0.0 0.0 0.00 0.00 0.00 31 1011.4
20260508060510 11 323 0.0 0.0 0.00 0.00 0.00 31 1011.4
20260508060008 11 323 0.0 0.0 0.00 0.00 0.00 31 1011.4
20260508055508 12 323 0.0 0.0 0.00 0.00 0.00 31 1011.5
20260508055008 12 323 0.0 0.0 0.00 0.00 0.00 31 1011.4
20260508054509 12 325 0.0 0.0 0.00 0.00 0.00 30 1011.4
20260508054007 12 325 0.0 0.0 0.00 0.00 0.00 30 1011.4
20260508053507 12 325 0.0 0.0 0.00 0.00 0.00 30 1011.3
20260508053007 12 325 0.0 0.0 0.00 0.00 0.00 30 1011.4
20260508052507 12 325 0.0 0.0 0.00 0.00 0.00 30 1011.4
20260508052007 12 325 0.0 0.0 0.00 0.00 0.00 30 1011.4
20260508051506 12 325 0.0 0.0 0.00 0.00 0.00 30 1011.5
20260508051006 12 325 0.0 0.0 0.00 0.00 0.00 30 1011.6
20260508050506 12 325 0.0 0.0 0.00 0.00 0.00 30 1011.7
20260508050005 12 325 0.0 0.0 0.00 0.00 0.00 30 1011.7
20260508045507 12 325 0.0 0.0 0.00 0.00 0.00 30 1011.7
20260508045005 12 325 0.0 0.0 0.00 0.00 0.00 29 1011.7
20260508044505 12 325 0.0 0.0 0.00 0.00 0.00 29 1011.7
20260508044007 12 325 0.0 0.0 0.00 0.00 0.00 29 1011.8
20260508043507 12 329 0.0 0.0 0.00 0.00 0.00 29 1011.8
20260508043004 13 331 0.0 0.0 0.00 0.00 0.00 29 1011.9
20260508042503 13 333 0.0 12.9 0.00 0.00 0.00 28 1012.0
20260508042005 13 328 0.0 19.3 0.00 0.00 0.00 28 1011.9
20260508041504 13 299 0.0 17.7 0.00 0.00 0.00 28 1011.9
20260508041003 13 355 1.6 20.9 0.00 0.00 0.00 28 1011.9
20260508040505 13 306 6.4 27.4 0.00 0.00 0.00 28 1011.9
20260508040009 13 319 1.6 27.4 0.00 0.00 0.00 28 1011.8
20260508035502 13 355 3.2 20.9 0.00 0.00 0.00 28 1011.7
20260508035002 13 331 0.0 4.8 0.00 0.00 0.00 28 1011.7
20260508034506 13 330 0.0 14.5 0.00 0.00 0.00 28 1011.7
20260508034001 13 305 1.6 22.5 0.00 0.00 0.00 28 1011.5
20260508033503 13 309 0.0 22.5 0.00 0.00 0.00 28 1011.5
20260508033001 13 342 3.2 22.5 0.00 0.00 0.00 28 1011.3
20260508032501 13 355 3.2 22.5 0.00 0.00 0.00 27 1011.3
20260508032005 13 333 1.6 19.3 0.00 0.00 0.00 27 1011.3
20260508031503 13 291 0.0 19.3 0.00 0.00 0.00 27 1011.2
20260508031001 13 346 0.0 37.0 0.00 0.00 0.00 27 1011.2
20260508030515 13 296 0.0 37.0 0.00 0.00 0.00 27 1011.3
20260508030001 13 338 3.2 30.6 0.00 0.00 0.00 26 1011.3
20260508025500 13 336 3.2 30.6 0.00 0.00 0.00 26 1011.2
20260508025001 13 340 1.6 20.9 0.00 0.00 0.00 26 1011.1
20260508024501 13 337 0.0 19.3 0.00 0.00 0.00 26 1011.2
20260508024100 13 307 0.0 22.5 0.00 0.00 0.00 26 1011.1
20260508023600 14 324 0.0 22.5 0.00 0.00 0.00 25 1011.0
20260508023100 14 345 0.0 12.9 0.00 0.00 0.00 25 1010.9
20260508022559 14 342 0.0 16.1 0.00 0.00 0.00 25 1010.8
20260508022100 14 348 0.0 16.1 0.00 0.00 0.00 24 1010.8
20260508021559 15 360 0.0 16.1 0.00 0.00 0.00 24 1010.7
20260508021058 15 344 0.0 16.1 0.00 0.00 0.00 24 1010.7
20260508020603 15 326 0.0 16.1 0.00 0.00 0.00 24 1010.6
20260508020108 15 338 0.0 29.0 0.00 0.00 0.00 23 1010.5
20260508015604 15 346 0.0 32.2 0.00 0.00 0.00 22 1010.5
20260508015058 15 329 0.0 32.2 0.00 0.00 0.00 22 1010.4
20260508014559 15 312 0.0 14.5 0.00 0.00 0.00 22 1010.4
20260508014102 15 322 0.0 16.1 0.00 0.00 0.00 21 1010.4
20260508013600 16 288 0.0 22.5 0.00 0.00 0.00 23 1010.3
20260508013057 16 263 0.0 17.7 0.00 0.00 0.00 22 1010.3
20260508012557 16 275 1.6 22.5 0.00 0.00 0.00 22 1010.3
20260508012057 16 299 1.6 22.5 0.00 0.00 0.00 22 1010.3
20260508011557 16 305 0.0 16.1 0.00 0.00 0.00 22 1010.3
20260508011055 16 304 1.6 11.3 0.00 0.00 0.00 22 1010.3
20260508010556 16 279 0.0 11.3 0.00 0.00 0.00 22 1010.2
20260508010056 16 32 0.0 4.8 0.00 0.00 0.00 21 1010.1
20260508005555 17 33 0.0 16.1 0.00 0.00 0.00 21 1010.2
20260508005057 17 44 1.6 16.1 0.00 0.00 0.00 20 1010.2
20260508004609 17 236 0.0 16.1 0.00 0.00 0.00 20 1010.2
20260508004054 17 225 0.0 11.3 0.00 0.00 0.00 20 1010.3
20260508003553 17 231 0.0 19.3 0.00 0.00 0.00 20 1010.2
20260508003053 17 222 3.2 19.3 0.00 0.00 0.00 19 1010.3
20260508002553 18 217 0.0 9.7 0.00 0.00 0.00 18 1010.4
20260508002052 18 233 0.0 9.7 0.00 0.00 0.00 19 1010.4
20260508001552 18 143 0.0 8.0 0.00 0.00 0.00 19 1010.4
20260508001051 18 186 0.0 0.0 0.00 0.00 0.00 19 1010.5
20260508000550 18 144 0.0 0.0 0.00 0.00 0.00 19 1010.6
20260508000049 18 146 0.0 0.0 0.00 0.00 0.00 18 1010.8
20260507235549 18 141 0.0 0.0 0.00 0.00 0.00 18 1010.9
20260507235048 18 220 0.0 0.0 0.00 0.00 0.00 18 1011.0
20260507234547 18 142 0.0 14.5 0.00 0.00 0.00 17 1011.0
20260507234046 18 217 1.6 14.5 0.00 0.00 0.00 18 1011.2
20260507233547 18 153 0.0 3.2 0.00 0.00 0.00 18 1011.2
20260507233044 18 202 0.0 3.2 0.00 0.00 0.00 17 1011.3
20260507232543 18 204 0.0 9.7 0.00 0.00 0.00 18 1011.4
20260507232043 18 113 0.0 9.7 0.00 0.00 0.00 17 1011.5
20260507231547 18 190 0.0 8.0 0.00 0.00 0.00 18 1011.5
20260507231042 18 164 0.0 11.3 0.00 0.00 0.00 17 1011.8
20260507230542 18 136 1.6 12.9 0.00 0.00 0.00 17 1011.9
20260507230039 18 195 0.0 11.3 0.00 0.00 0.00 18 1012.1
20260507225539 18 182 0.0 14.5 0.00 0.00 0.00 18 1012.1
20260507225041 18 213 0.0 14.5 0.00 0.00 0.00 18 1012.2
20260507224538 18 205 0.0 14.5 0.00 0.00 0.00 17 1012.1
20260507224040 18 196 1.6 16.1 0.00 0.00 0.00 17 1012.3
20260507223540 18 194 1.6 16.1 0.00 0.00 0.00 17 1012.2
20260507223036 18 148 0.0 14.5 0.00 0.00 0.00 17 1012.5
20260507222535 18 221 0.0 14.5 0.00 0.00 0.00 17 1012.6
20260507222037 18 205 0.0 3.2 0.00 0.00 0.00 18 1012.6
20260507221534 18 231 0.0 3.2 0.00 0.00 0.00 17 1012.9
20260507221033 18 153 0.0 0.0 0.00 0.00 0.00 17 1012.9
20260507220531 17 198 0.0 17.7 0.00 0.00 0.00 16 1013.0
20260507220031 18 187 0.0 17.7 0.00 0.00 0.00 17 1013.1
20260507215530 17 209 0.0 12.9 0.00 0.00 0.00 17 1013.2
20260507215029 17 225 1.6 9.7 0.00 0.00 0.00 17 1013.3
20260507214530 17 208 0.0 14.5 0.00 0.00 0.00 18 1013.4
20260507214027 17 210 0.0 22.5 0.00 0.00 0.00 18 1013.6
20260507213529 17 221 0.0 4.8 0.00 0.00 0.00 17 1013.7
20260507213026 17 212 0.0 11.3 0.00 0.00 0.00 18 1013.8
20260507212524 17 188 0.0 11.3 0.00 0.00 0.00 17 1013.9
20260507212026 17 235 0.0 20.9 0.00 0.00 0.00 18 1014.2
20260507211523 17 240 0.0 20.9 0.00 0.00 0.00 17 1014.2
20260507211022 17 232 0.0 17.7 0.00 0.00 0.00 17 1014.2
20260507210522 17 229 1.6 17.7 0.00 0.00 0.00 18 1014.3
20260507210034 17 219 0.0 17.7 0.00 0.00 0.00 17 1014.4
20260507205520 17 176 0.0 6.4 0.00 0.00 0.00 18 1014.5
20260507205018 17 193 0.0 22.5 0.00 0.00 0.00 19 1014.7
20260507204518 17 223 4.8 22.5 0.00 0.00 0.00 18 1014.8
20260507204018 17 234 6.4 22.5 0.00 0.00 0.00 18 1014.9
20260507203516 16 223 0.0 4.8 0.00 0.00 0.00 19 1015.0
20260507203015 16 193 0.0 12.9 0.00 0.00 0.00 20 1015.2
20260507202513 15 213 0.0 24.1 0.00 0.00 0.00 19 1015.4
20260507202112 15 209 0.0 24.1 0.00 0.00 0.00 19 1015.4
20260507201512 16 215 0.0 14.5 0.00 0.00 0.00 18 1015.6
20260507201011 16 217 3.2 17.7 0.00 0.00 0.00 18 1015.7
20260507200510 16 213 0.0 25.7 0.00 0.00 0.00 20 1015.8
20260507200010 15 238 0.0 25.7 0.00 0.00 0.00 18 1016.0
20260507195512 15 238 0.0 16.1 0.00 0.00 0.00 18 1016.0
20260507195007 15 238 0.0 17.7 0.00 0.00 0.00 18 1016.2
20260507194508 15 217 0.0 17.7 0.00 0.00 0.00 19 1016.2
20260507194006 15 219 0.0 8.0 0.00 0.00 0.00 18 1016.3
20260507193506 15 212 0.0 3.2 0.00 0.00 0.00 18 1016.5
20260507193005 15 221 0.0 3.2 0.00 0.00 0.00 19 1016.5
20260507192502 15 259 0.0 17.7 0.00 0.00 0.00 19 1016.6
20260507192001 14 253 0.0 17.7 0.00 0.00 0.00 20 1016.6
20260507191601 13 171 0.0 16.1 0.00 0.00 0.00 19 1016.7
20260507191059 13 250 0.0 24.1 0.00 0.00 0.00 19 1016.9
20260507190559 13 234 0.0 16.1 0.00 0.00 0.00 18 1017.0
20260507190059 13 219 1.6 16.1 0.00 0.00 0.00 18 1017.0
20260507185557 13 237 0.0 1.6 0.00 0.10 0.00 21 1017.1
20260507185056 13 236 0.0 17.7 0.00 0.10 0.00 19 1017.2
20260507184605 13 222 0.0 22.5 0.00 0.10 0.00 18 1017.3
20260507184054 13 203 0.0 22.5 0.00 0.10 0.00 18 1017.3
20260507183553 13 219 0.0 4.8 0.00 0.10 0.00 20 1017.4
20260507183052 13 211 0.0 17.7 0.00 0.10 0.00 18 1017.7
20260507182553 13 215 0.0 17.7 0.00 0.10 0.00 19 1017.7
20260507182051 13 221 0.0 6.4 0.00 0.10 0.00 18 1017.7
20260507181551 13 223 0.0 6.4 0.00 0.10 0.00 19 1017.8
20260507181049 13 153 0.0 0.0 0.00 0.10 0.00 20 1017.9
20260507180553 12 204 0.0 0.0 0.00 0.10 0.00 19 1018.1
20260507180049 12 217 0.0 1.6 0.00 0.10 0.00 21 1018.3
20260507175548 12 189 0.0 1.6 0.00 0.10 0.00 19 1018.3
20260507175046 12 209 0.0 3.2 0.00 0.10 0.00 19 1018.4
20260507174550 12 218 0.0 11.3 0.00 0.10 0.00 20 1018.5
20260507174045 12 257 0.0 11.3 0.00 0.10 0.00 21 1018.5
20260507173544 12 215 0.0 1.6 0.00 0.10 0.00 22 1018.5
20260507173045 12 215 0.0 1.6 0.00 0.10 0.00 19 1018.5
20260507172543 12 147 0.0 0.0 0.00 0.10 0.00 19 1018.6
20260507172043 12 145 0.0 0.0 0.00 0.10 0.00 19 1018.7
20260507171549 12 210 0.0 0.0 0.00 0.10 0.00 19 1018.8
20260507171042 12 210 0.0 0.0 0.00 0.10 0.00 19 1018.9
20260507170543 12 213 0.0 0.0 0.00 0.10 0.00 21 1018.9
20260507170041 11 213 0.0 0.0 0.00 0.10 0.00 22 1019.0
20260507165539 10 215 0.0 1.6 0.00 0.10 0.00 23 1019.1
20260507165039 10 223 0.0 1.6 0.00 0.10 0.00 20 1019.1
20260507164539 11 255 0.0 1.6 0.00 0.10 0.00 21 1019.3
20260507164039 10 234 0.0 0.0 0.00 0.10 0.00 23 1019.3
20260507163540 10 234 0.0 11.3 0.00 0.10 0.00 19 1019.4
20260507163038 10 240 0.0 0.0 0.00 0.10 0.00 21 1019.5
20260507162538 10 227 0.0 14.5 0.00 0.10 0.00 20 1019.5
20260507162038 10 247 0.0 14.5 0.00 0.10 0.00 19 1019.4
20260507161540 11 150 0.0 0.0 0.00 0.10 0.00 21 1019.5
20260507161036 11 150 0.0 0.0 0.00 0.10 0.00 20 1019.5
20260507160537 11 143 0.0 0.0 0.00 0.10 0.00 20 1019.6
20260507160136 11 154 0.0 0.0 0.00 0.10 0.00 22 1019.6
20260507155534 10 100 0.0 0.0 0.00 0.10 0.00 22 1019.7
20260507155034 10 96 0.0 0.0 0.00 0.10 0.00 23 1019.7
20260507154535 10 95 0.0 0.0 0.00 0.10 0.00 23 1019.7
20260507154030 10 95 0.0 0.0 0.00 0.10 0.00 22 1019.8
20260507153529 9 91 0.0 0.0 0.00 0.10 0.00 25 1019.9